Time,TemperatureF,DewpointF,PressureIn,WindDirection,WindDirectionDegrees,WindSpeedMPH,WindSpeedGustMPH,Humidity,HourlyPrecipIn,Conditions,Clouds,dailyrainin,SolarRadiationWatts/m^2,SoftwareType,DateUTC
2013-11-30 00:05:00,53.3,46.6,30.31,SE,141,0.0,0.0,78,0.00,,,0.00,0,Wunderground v.1.15,2013-11-30 06:05:00,
2013-11-30 00:10:00,53.3,46.6,30.31,SE,141,0.0,0.0,78,0.00,,,0.00,0,Wunderground v.1.15,2013-11-30 06:10:00,
2013-11-30 00:15:00,53.3,46.6,30.31,SE,141,0.0,0.0,78,0.00,,,0.00,0,Wunderground v.1.15,2013-11-30 06:15:00,
2013-11-30 00:20:00,53.2,46.5,30.31,SE,141,0.0,0.0,78,0.00,,,0.00,0,Wunderground v.1.15,2013-11-30 06:20:00,
2013-11-30 00:25:00,53.2,46.5,30.31,SE,141,0.0,0.0,78,0.00,,,0.00,0,Wunderground v.1.15,2013-11-30 06:25:00,
2013-11-30 00:30:00,53.1,46.8,30.30,SE,141,1.0,1.0,79,0.00,,,0.00,0,Wunderground v.1.15,2013-11-30 06:30:00,
2013-11-30 00:35:00,53.0,46.7,30.30,SE,141,1.0,1.0,79,0.00,,,0.00,0,Wunderground v.1.15,2013-11-30 06:35:00,
2013-11-30 00:40:00,52.9,46.6,30.30,SE,141,0.0,0.0,79,0.00,,,0.00,0,Wunderground v.1.15,2013-11-30 06:40:00,
2013-11-30 00:45:00,52.8,46.5,30.30,SE,141,0.0,0.0,79,0.00,,,0.00,0,Wunderground v.1.15,2013-11-30 06:45:00,
2013-11-30 00:50:00,52.7,46.0,30.30,SE,141,0.0,0.0,78,0.00,,,0.00,0,Wunderground v.1.15,2013-11-30 06:50:00,
2013-11-30 00:55:00,52.5,46.2,30.30,SE,141,0.0,0.0,79,0.00,,,0.00,0,Wunderground v.1.15,2013-11-30 06:55:00,
2013-11-30 01:00:00,52.4,46.1,30.29,SE,141,0.0,0.0,79,0.00,,,0.00,0,Wunderground v.1.15,2013-11-30 07:00:00,
2013-11-30 01:05:00,52.2,45.9,30.29,SE,141,0.0,0.0,79,0.00,,,0.00,0,Wunderground v.1.15,2013-11-30 07:05:00,
2013-11-30 01:10:00,52.0,45.7,30.29,SE,141,0.0,0.0,79,0.00,,,0.00,0,Wunderground v.1.15,2013-11-30 07:10:00,
2013-11-30 01:15:00,51.8,45.8,30.28,SE,141,0.0,0.0,80,0.00,,,0.00,0,Wunderground v.1.15,2013-11-30 07:15:00,
2013-11-30 01:20:00,51.7,45.7,30.28,SE,141,0.0,0.0,80,0.00,,,0.00,0,Wunderground v.1.15,2013-11-30 07:20:00,
2013-11-30 01:25:00,51.7,46.1,30.28,SE,141,0.0,3.0,81,0.00,,,0.00,0,Wunderground v.1.15,2013-11-30 07:25:00,
2013-11-30 01:30:00,51.6,46.3,30.28,SE,141,0.0,0.0,82,0.00,,,0.00,0,Wunderground v.1.15,2013-11-30 07:30:00,
2013-11-30 01:35:00,51.6,46.3,30.28,SE,141,0.0,0.0,82,0.00,,,0.00,0,Wunderground v.1.15,2013-11-30 07:35:00,
2013-11-30 01:40:00,51.6,46.3,30.28,SE,141,0.0,0.0,82,0.00,,,0.00,0,Wunderground v.1.15,2013-11-30 07:40:00,
2013-11-30 01:45:00,51.7,46.7,30.28,SE,141,0.0,0.0,83,0.00,,,0.00,0,Wunderground v.1.15,2013-11-30 07:45:00,
2013-11-30 01:50:00,51.7,46.7,30.28,SE,141,0.0,0.0,83,0.00,,,0.00,0,Wunderground v.1.15,2013-11-30 07:50:00,
2013-11-30 01:55:00,51.7,46.7,30.28,SE,141,0.0,0.0,83,0.00,,,0.00,0,Wunderground v.1.15,2013-11-30 07:55:00,
2013-11-30 02:00:00,51.8,46.8,30.28,SE,141,0.0,0.0,83,0.00,,,0.00,0,Wunderground v.1.15,2013-11-30 08:00:00,
2013-11-30 02:05:00,51.8,46.8,30.28,SE,141,0.0,0.0,83,0.00,,,0.00,0,Wunderground v.1.15,2013-11-30 08:05:00,
2013-11-30 02:10:00,51.8,46.8,30.28,SE,141,0.0,0.0,83,0.00,,,0.00,0,Wunderground v.1.15,2013-11-30 08:10:00,
2013-11-30 02:15:00,51.8,46.8,30.28,SE,141,0.0,0.0,83,0.00,,,0.00,0,Wunderground v.1.15,2013-11-30 08:15:00,
2013-11-30 02:20:00,51.8,46.8,30.28,SE,141,0.0,0.0,83,0.00,,,0.00,0,Wunderground v.1.15,2013-11-30 08:20:00,
2013-11-30 02:25:00,51.8,46.8,30.28,SE,141,0.0,0.0,83,0.00,,,0.00,0,Wunderground v.1.15,2013-11-30 08:25:00,
2013-11-30 02:30:00,51.8,46.8,30.26,SE,141,0.0,0.0,83,0.00,,,0.00,0,Wunderground v.1.15,2013-11-30 08:30:00,
2013-11-30 02:35:00,51.8,46.8,30.26,SE,141,0.0,0.0,83,0.00,,,0.00,0,Wunderground v.1.15,2013-11-30 08:35:00,
2013-11-30 02:40:00,51.8,46.8,30.26,SE,141,0.0,0.0,83,0.00,,,0.00,0,Wunderground v.1.15,2013-11-30 08:40:00,
2013-11-30 02:45:00,51.7,46.7,30.26,SE,141,0.0,0.0,83,0.00,,,0.00,0,Wunderground v.1.15,2013-11-30 08:45:00,
2013-11-30 02:50:00,51.7,46.7,30.26,SE,141,0.0,0.0,83,0.00,,,0.00,0,Wunderground v.1.15,2013-11-30 08:50:00,
2013-11-30 02:55:00,51.7,47.0,30.26,SE,141,0.0,0.0,84,0.00,,,0.00,0,Wunderground v.1.15,2013-11-30 08:55:00,
2013-11-30 03:00:00,51.6,46.9,30.26,SE,141,0.0,0.0,84,0.00,,,0.00,0,Wunderground v.1.15,2013-11-30 09:00:00,
2013-11-30 03:05:00,51.5,46.8,30.26,SE,141,0.0,0.0,84,0.00,,,0.00,0,Wunderground v.1.15,2013-11-30 09:05:00,
2013-11-30 03:15:00,51.5,46.8,30.26,SE,141,0.0,0.0,84,0.00,,,0.00,0,Wunderground v.1.15,2013-11-30 09:15:00,
2013-11-30 03:20:00,51.4,46.4,30.26,SE,141,0.0,0.0,83,0.00,,,0.00,0,Wunderground v.1.15,2013-11-30 09:20:00,
2013-11-30 03:25:00,51.3,46.3,30.26,SE,141,0.0,0.0,83,0.00,,,0.00,0,Wunderground v.1.15,2013-11-30 09:25:00,
2013-11-30 03:30:00,51.2,46.2,30.25,SE,141,0.0,0.0,83,0.00,,,0.00,0,Wunderground v.1.15,2013-11-30 09:30:00,
2013-11-30 03:35:00,51.0,46.0,30.25,SE,141,0.0,0.0,83,0.00,,,0.00,0,Wunderground v.1.15,2013-11-30 09:35:00,
2013-11-30 03:40:00,50.8,45.8,30.25,SE,141,0.0,0.0,83,0.00,,,0.00,0,Wunderground v.1.15,2013-11-30 09:40:00,
2013-11-30 03:45:00,50.7,45.7,30.25,SE,141,0.0,0.0,83,0.00,,,0.00,0,Wunderground v.1.15,2013-11-30 09:45:00,
2013-11-30 03:50:00,50.6,45.6,30.25,SE,141,0.0,0.0,83,0.00,,,0.00,0,Wunderground v.1.15,2013-11-30 09:50:00,
2013-11-30 03:55:00,50.5,45.8,30.25,SE,141,0.0,0.0,84,0.00,,,0.00,0,Wunderground v.1.15,2013-11-30 09:55:00,
2013-11-30 04:00:00,50.3,45.6,30.24,SE,141,0.0,0.0,84,0.00,,,0.00,0,Wunderground v.1.15,2013-11-30 10:00:00,
2013-11-30 04:05:00,50.2,45.6,30.24,SE,141,0.0,0.0,84,0.00,,,0.00,0,Wunderground v.1.15,2013-11-30 10:05:00,
2013-11-30 04:10:00,50.1,45.8,30.24,SE,141,0.0,0.0,85,0.00,,,0.00,0,Wunderground v.1.15,2013-11-30 10:10:00,
2013-11-30 04:20:00,49.9,45.6,30.25,SE,141,0.0,0.0,85,0.00,,,0.00,0,Wunderground v.1.15,2013-11-30 10:20:00,
2013-11-30 04:25:00,49.8,45.8,30.25,SE,141,0.0,0.0,86,0.00,,,0.00,0,Wunderground v.1.15,2013-11-30 10:25:00,
2013-11-30 04:35:00,49.6,45.6,30.25,SE,141,0.0,0.0,86,0.00,,,0.00,0,Wunderground v.1.15,2013-11-30 10:35:00,
2013-11-30 04:40:00,49.5,45.5,30.25,SE,141,0.0,0.0,86,0.00,,,0.00,0,Wunderground v.1.15,2013-11-30 10:40:00,
2013-11-30 04:45:00,49.4,45.4,30.25,SE,141,0.0,0.0,86,0.00,,,0.00,0,Wunderground v.1.15,2013-11-30 10:45:00,
2013-11-30 04:50:00,49.2,45.2,30.25,SE,141,0.0,0.0,86,0.00,,,0.00,0,Wunderground v.1.15,2013-11-30 10:50:00,
2013-11-30 04:55:00,49.1,45.4,30.25,SE,141,0.0,0.0,87,0.00,,,0.00,0,Wunderground v.1.15,2013-11-30 10:55:00,
2013-11-30 05:00:00,48.9,44.9,30.25,SE,141,0.0,0.0,86,0.00,,,0.00,0,Wunderground v.1.15,2013-11-30 11:00:00,
2013-11-30 05:05:00,48.8,45.1,30.25,SE,141,0.0,0.0,87,0.00,,,0.00,0,Wunderground v.1.15,2013-11-30 11:05:00,
2013-11-30 05:10:00,48.7,45.0,30.25,SE,141,0.0,0.0,87,0.00,,,0.00,0,Wunderground v.1.15,2013-11-30 11:10:00,
2013-11-30 05:15:00,48.6,44.9,30.25,SE,141,0.0,0.0,87,0.00,,,0.00,0,Wunderground v.1.15,2013-11-30 11:15:00,
2013-11-30 05:20:00,48.6,45.2,30.25,SE,141,0.0,0.0,88,0.00,,,0.00,0,Wunderground v.1.15,2013-11-30 11:20:00,
2013-11-30 05:25:00,48.5,45.1,30.25,SE,141,0.0,0.0,88,0.00,,,0.00,0,Wunderground v.1.15,2013-11-30 11:25:00,
2013-11-30 05:35:00,48.5,45.4,30.25,SE,141,0.0,0.0,89,0.00,,,0.00,0,Wunderground v.1.15,2013-11-30 11:35:00,
2013-11-30 05:40:00,48.5,45.4,30.25,SE,141,0.0,0.0,89,0.00,,,0.00,0,Wunderground v.1.15,2013-11-30 11:40:00,
2013-11-30 05:45:00,48.4,45.3,30.25,SE,141,0.0,0.0,89,0.00,,,0.00,0,Wunderground v.1.15,2013-11-30 11:45:00,
2013-11-30 05:50:00,48.4,45.3,30.25,SE,141,0.0,0.0,89,0.00,,,0.00,0,Wunderground v.1.15,2013-11-30 11:50:00,
2013-11-30 05:55:00,48.3,45.2,30.25,SE,141,0.0,0.0,89,0.00,,,0.00,0,Wunderground v.1.15,2013-11-30 11:55:00,
2013-11-30 06:00:00,48.2,45.1,30.25,SE,141,0.0,0.0,89,0.00,,,0.00,0,Wunderground v.1.15,2013-11-30 12:00:00,
2013-11-30 06:05:00,48.2,45.4,30.25,SE,141,0.0,0.0,90,0.00,,,0.00,0,Wunderground v.1.15,2013-11-30 12:05:00,
2013-11-30 06:10:00,48.1,45.3,30.25,SE,141,0.0,0.0,90,0.00,,,0.00,0,Wunderground v.1.15,2013-11-30 12:10:00,
2013-11-30 06:15:00,48.0,45.2,30.26,SE,141,0.0,0.0,90,0.00,,,0.00,0,Wunderground v.1.15,2013-11-30 12:15:00,
2013-11-30 06:20:00,47.9,45.1,30.26,SE,141,0.0,0.0,90,0.00,,,0.00,0,Wunderground v.1.15,2013-11-30 12:20:00,
2013-11-30 06:25:00,47.9,45.1,30.26,SE,141,0.0,0.0,90,0.00,,,0.00,0,Wunderground v.1.15,2013-11-30 12:25:00,
2013-11-30 06:30:00,47.9,45.1,30.26,SE,141,0.0,0.0,90,0.00,,,0.00,0,Wunderground v.1.15,2013-11-30 12:30:00,
2013-11-30 06:35:00,48.0,45.5,30.26,SE,141,0.0,0.0,91,0.00,,,0.00,0,Wunderground v.1.15,2013-11-30 12:35:00,
2013-11-30 06:40:00,48.1,45.6,30.26,SE,141,0.0,0.0,91,0.00,,,0.00,0,Wunderground v.1.15,2013-11-30 12:40:00,
2013-11-30 06:45:00,48.2,45.7,30.26,SE,141,0.0,0.0,91,0.00,,,0.00,0,Wunderground v.1.15,2013-11-30 12:45:00,
2013-11-30 06:50:00,48.3,45.8,30.26,SE,141,0.0,0.0,91,0.00,,,0.00,0,Wunderground v.1.15,2013-11-30 12:50:00,
2013-11-30 06:55:00,48.4,45.9,30.26,SE,141,0.0,0.0,91,0.00,,,0.00,0,Wunderground v.1.15,2013-11-30 12:55:00,
2013-11-30 07:00:00,48.4,45.9,30.26,SE,141,0.0,0.0,91,0.00,,,0.00,0,Wunderground v.1.15,2013-11-30 13:00:00,
2013-11-30 07:05:00,48.3,45.8,30.26,SE,142,0.0,0.0,91,0.00,,,0.00,0,Wunderground v.1.15,2013-11-30 13:05:00,
2013-11-30 07:10:00,48.3,45.8,30.26,SE,141,0.0,0.0,91,0.00,,,0.00,0,Wunderground v.1.15,2013-11-30 13:10:00,
2013-11-30 07:15:00,48.2,45.7,30.27,SE,141,0.0,0.0,91,0.00,,,0.00,5,Wunderground v.1.15,2013-11-30 13:15:00,
2013-11-30 07:20:00,48.1,45.9,30.27,SE,141,0.0,0.0,92,0.00,,,0.00,9,Wunderground v.1.15,2013-11-30 13:20:00,
2013-11-30 07:25:00,48.1,45.9,30.27,SE,141,0.0,0.0,92,0.00,,,0.00,12,Wunderground v.1.15,2013-11-30 13:25:00,
2013-11-30 07:30:00,48.1,45.9,30.27,SE,141,0.0,0.0,92,0.00,,,0.00,14,Wunderground v.1.15,2013-11-30 13:30:00,
2013-11-30 07:35:00,48.1,45.9,30.27,SE,141,0.0,0.0,92,0.00,,,0.00,19,Wunderground v.1.15,2013-11-30 13:35:00,
2013-11-30 07:40:00,48.1,45.9,30.27,SE,141,0.0,0.0,92,0.00,,,0.00,26,Wunderground v.1.15,2013-11-30 13:40:00,
2013-11-30 07:45:00,48.2,46.0,30.27,SE,141,0.0,0.0,92,0.00,,,0.00,28,Wunderground v.1.15,2013-11-30 13:45:00,
2013-11-30 07:50:00,48.4,46.2,30.27,SE,141,0.0,0.0,92,0.00,,,0.00,51,Wunderground v.1.15,2013-11-30 13:50:00,
2013-11-30 07:55:00,48.6,46.7,30.27,SE,141,0.0,0.0,93,0.00,,,0.00,33,Wunderground v.1.15,2013-11-30 13:55:00,
2013-11-30 08:05:00,49.2,47.3,30.27,SE,141,0.0,0.0,93,0.00,,,0.00,40,Wunderground v.1.15,2013-11-30 14:05:00,
2013-11-30 08:10:00,49.3,47.4,30.27,SE,141,0.0,0.0,93,0.00,,,0.00,67,Wunderground v.1.15,2013-11-30 14:10:00,
2013-11-30 08:20:00,49.7,47.8,30.27,SE,141,0.0,0.0,93,0.00,,,0.00,49,Wunderground v.1.15,2013-11-30 14:20:00,
2013-11-30 08:30:00,50.3,48.4,30.27,SE,141,0.0,0.0,93,0.00,,,0.00,60,Wunderground v.1.15,2013-11-30 14:30:00,
2013-11-30 08:40:00,50.7,48.7,30.27,SE,141,0.0,2.0,93,0.00,,,0.00,88,Wunderground v.1.15,2013-11-30 14:40:00,
2013-11-30 08:45:00,50.9,48.7,30.28,SE,141,0.0,2.0,92,0.00,,,0.00,100,Wunderground v.1.15,2013-11-30 14:45:00,
2013-11-30 08:50:00,52.1,49.6,30.28,SE,141,0.0,0.0,91,0.00,,,0.00,220,Wunderground v.1.15,2013-11-30 14:50:00,
2013-11-30 08:55:00,53.4,50.2,30.28,SE,141,0.0,0.0,89,0.00,,,0.00,313,Wunderground v.1.15,2013-11-30 14:55:00,
2013-11-30 09:00:00,54.1,50.0,30.28,SE,141,0.0,0.0,86,0.00,,,0.00,160,Wunderground v.1.15,2013-11-30 15:00:00,
2013-11-30 09:05:00,54.5,50.1,30.28,SE,141,0.0,0.0,85,0.00,,,0.00,142,Wunderground v.1.15,2013-11-30 15:05:00,
2013-11-30 09:15:00,55.4,50.3,30.29,SE,141,0.0,0.0,83,0.00,,,0.00,200,Wunderground v.1.15,2013-11-30 15:15:00,
2013-11-30 09:20:00,55.5,50.1,30.29,SE,141,0.0,0.0,82,0.00,,,0.00,163,Wunderground v.1.15,2013-11-30 15:20:00,
2013-11-30 09:25:00,55.7,50.6,30.29,SE,141,0.0,0.0,83,0.00,,,0.00,165,Wunderground v.1.15,2013-11-30 15:25:00,
2013-11-30 09:30:00,56.1,50.7,30.29,SE,141,0.0,0.0,82,0.00,,,0.00,248,Wunderground v.1.15,2013-11-30 15:30:00,
2013-11-30 09:35:00,56.8,51.0,30.29,SE,141,0.0,0.0,81,0.00,,,0.00,446,Wunderground v.1.15,2013-11-30 15:35:00,
2013-11-30 09:40:00,57.9,51.8,30.29,SE,141,0.0,0.0,80,0.00,,,0.00,545,Wunderground v.1.15,2013-11-30 15:40:00,
2013-11-30 09:45:00,59.0,52.8,30.29,SE,141,0.0,0.0,80,0.00,,,0.00,568,Wunderground v.1.15,2013-11-30 15:45:00,
2013-11-30 09:50:00,59.7,52.5,30.29,SE,141,1.0,1.0,77,0.00,,,0.00,489,Wunderground v.1.15,2013-11-30 15:50:00,
2013-11-30 09:55:00,59.8,52.2,30.29,SE,140,1.0,1.0,76,0.00,,,0.00,519,Wunderground v.1.15,2013-11-30 15:55:00,
2013-11-30 10:00:00,60.2,52.6,30.28,SE,140,1.0,4.0,76,0.00,,,0.00,552,Wunderground v.1.15,2013-11-30 16:00:00,
2013-11-30 10:05:00,60.2,53.0,30.28,SE,141,2.0,4.0,77,0.00,,,0.00,538,Wunderground v.1.15,2013-11-30 16:05:00,
2013-11-30 10:15:00,60.6,52.3,30.28,SE,140,1.0,3.0,74,0.00,,,0.00,237,Wunderground v.1.15,2013-11-30 16:15:00,
2013-11-30 10:20:00,60.1,52.9,30.28,SE,140,2.0,2.0,77,0.00,,,0.00,253,Wunderground v.1.15,2013-11-30 16:20:00,
2013-11-30 10:25:00,60.2,52.6,30.28,SE,141,2.0,4.0,76,0.00,,,0.00,726,Wunderground v.1.15,2013-11-30 16:25:00,
2013-11-30 10:30:00,60.9,53.3,30.28,SE,141,2.0,2.0,76,0.00,,,0.00,612,Wunderground v.1.15,2013-11-30 16:30:00,
2013-11-30 10:35:00,60.7,52.7,30.28,SE,141,1.0,5.0,75,0.00,,,0.00,250,Wunderground v.1.15,2013-11-30 16:35:00,
2013-11-30 10:40:00,60.7,53.1,30.28,SE,141,2.0,2.0,76,0.00,,,0.00,260,Wunderground v.1.15,2013-11-30 16:40:00,
2013-11-30 10:45:00,60.8,53.5,30.27,SE,140,2.0,2.0,77,0.00,,,0.00,285,Wunderground v.1.15,2013-11-30 16:45:00,
2013-11-30 10:50:00,61.2,53.6,30.27,SE,141,1.0,1.0,76,0.00,,,0.00,355,Wunderground v.1.15,2013-11-30 16:50:00,
2013-11-30 10:55:00,61.1,53.5,30.27,SE,141,1.0,3.0,76,0.00,,,0.00,420,Wunderground v.1.15,2013-11-30 16:55:00,
2013-11-30 11:00:00,60.7,53.1,30.27,SE,141,2.0,2.0,76,0.00,,,0.00,334,Wunderground v.1.15,2013-11-30 17:00:00,
2013-11-30 11:05:00,61.3,53.3,30.27,SE,141,2.0,2.0,75,0.00,,,0.00,336,Wunderground v.1.15,2013-11-30 17:05:00,
2013-11-30 11:10:00,61.6,54.0,30.27,SE,141,0.0,0.0,76,0.00,,,0.00,408,Wunderground v.1.15,2013-11-30 17:10:00,
2013-11-30 11:15:00,62.9,54.9,30.26,SE,141,0.0,0.0,75,0.00,,,0.00,441,Wunderground v.1.15,2013-11-30 17:15:00,
2013-11-30 11:20:00,64.6,55.7,30.26,SE,141,1.0,1.0,73,0.00,,,0.00,895,Wunderground v.1.15,2013-11-30 17:20:00,
2013-11-30 11:25:00,64.2,55.0,30.26,SE,141,0.0,6.0,72,0.00,,,0.00,313,Wunderground v.1.15,2013-11-30 17:25:00,
2013-11-30 11:30:00,63.8,55.4,30.26,SE,140,1.0,1.0,74,0.00,,,0.00,283,Wunderground v.1.15,2013-11-30 17:30:00,
2013-11-30 11:35:00,64.2,55.4,30.26,SE,140,1.0,1.0,73,0.00,,,0.00,251,Wunderground v.1.15,2013-11-30 17:35:00,
2013-11-30 11:40:00,64.3,55.8,30.26,SE,141,1.0,1.0,74,0.00,,,0.00,257,Wunderground v.1.15,2013-11-30 17:40:00,
2013-11-30 11:45:00,64.4,56.3,30.24,SE,140,1.0,1.0,75,0.00,,,0.00,401,Wunderground v.1.15,2013-11-30 17:45:00,
2013-11-30 11:50:00,65.6,56.3,30.24,SE,140,0.0,0.0,72,0.00,,,0.00,381,Wunderground v.1.15,2013-11-30 17:50:00,
2013-11-30 11:55:00,65.7,56.4,30.24,SE,140,1.0,5.0,72,0.00,,,0.00,397,Wunderground v.1.15,2013-11-30 17:55:00,
2013-11-30 12:05:00,66.8,57.5,30.23,SE,140,3.0,3.0,72,0.00,,,0.00,418,Wunderground v.1.15,2013-11-30 18:05:00,
2013-11-30 12:10:00,67.3,58.0,30.23,SE,140,3.0,4.0,72,0.00,,,0.00,272,Wunderground v.1.15,2013-11-30 18:10:00,
2013-11-30 12:15:00,67.2,57.9,30.22,SE,140,4.0,7.0,72,0.00,,,0.00,278,Wunderground v.1.15,2013-11-30 18:15:00,
2013-11-30 12:20:00,67.0,58.1,30.22,SE,140,4.0,4.0,73,0.00,,,0.00,301,Wunderground v.1.15,2013-11-30 18:20:00,
2013-11-30 12:25:00,67.7,59.1,30.22,SE,144,4.0,4.0,74,0.00,,,0.00,306,Wunderground v.1.15,2013-11-30 18:25:00,
2013-11-30 12:30:00,67.4,58.4,30.21,SE,145,4.0,4.0,73,0.00,,,0.00,352,Wunderground v.1.15,2013-11-30 18:30:00,
2013-11-30 12:35:00,67.4,58.4,30.21,SSE,147,4.0,5.0,73,0.00,,,0.00,272,Wunderground v.1.15,2013-11-30 18:35:00,
2013-11-30 12:40:00,67.7,58.7,30.21,SE,146,4.0,4.0,73,0.00,,,0.00,352,Wunderground v.1.15,2013-11-30 18:40:00,
2013-11-30 12:45:00,67.9,58.9,30.19,SSE,148,4.0,4.0,73,0.00,,,0.00,323,Wunderground v.1.15,2013-11-30 18:45:00,
2013-11-30 12:50:00,67.7,58.7,30.19,SSE,148,3.0,3.0,73,0.00,,,0.00,214,Wunderground v.1.15,2013-11-30 18:50:00,
2013-11-30 12:55:00,67.7,58.7,30.19,SSE,148,2.0,3.0,73,0.00,,,0.00,165,Wunderground v.1.15,2013-11-30 18:55:00,
2013-11-30 13:00:00,67.5,58.9,30.19,SSE,148,2.0,4.0,74,0.00,,,0.00,206,Wunderground v.1.15,2013-11-30 19:00:00,
2013-11-30 13:05:00,67.4,59.2,30.19,SSE,148,2.0,4.0,75,0.00,,,0.00,295,Wunderground v.1.15,2013-11-30 19:05:00,
2013-11-30 13:10:00,68.1,59.1,30.19,SSE,149,1.0,1.0,73,0.00,,,0.00,288,Wunderground v.1.15,2013-11-30 19:10:00,
2013-11-30 13:15:00,68.1,59.1,30.17,SSE,150,1.0,1.0,73,0.00,,,0.00,264,Wunderground v.1.15,2013-11-30 19:15:00,
2013-11-30 13:20:00,68.3,59.3,30.17,SSE,150,0.0,0.0,73,0.00,,,0.00,209,Wunderground v.1.15,2013-11-30 19:20:00,
2013-11-30 13:25:00,68.4,59.0,30.17,SSE,150,1.0,1.0,72,0.00,,,0.00,220,Wunderground v.1.15,2013-11-30 19:25:00,
2013-11-30 13:35:00,69.7,59.9,30.17,SSE,152,2.0,6.0,71,0.00,,,0.00,311,Wunderground v.1.15,2013-11-30 19:35:00,
2013-11-30 13:40:00,70.0,59.4,30.17,South,184,3.0,12.0,69,0.00,,,0.00,267,Wunderground v.1.15,2013-11-30 19:40:00,
2013-11-30 13:45:00,69.4,58.4,30.16,South,185,4.0,12.0,68,0.00,,,0.00,248,Wunderground v.1.15,2013-11-30 19:45:00,
2013-11-30 13:50:00,69.4,59.2,30.16,South,185,3.0,3.0,70,0.00,,,0.00,216,Wunderground v.1.15,2013-11-30 19:50:00,
2013-11-30 14:00:00,69.5,59.3,30.16,South,185,0.0,0.0,70,0.00,,,0.00,216,Wunderground v.1.15,2013-11-30 20:00:00,
2013-11-30 14:05:00,69.4,59.2,30.16,South,185,0.0,0.0,70,0.00,,,0.00,167,Wunderground v.1.15,2013-11-30 20:05:00,
2013-11-30 14:10:00,69.1,58.9,30.16,South,185,1.0,1.0,70,0.00,,,0.00,153,Wunderground v.1.15,2013-11-30 20:10:00,
2013-11-30 14:15:00,69.3,59.1,30.16,South,184,1.0,4.0,70,0.00,,,0.00,185,Wunderground v.1.15,2013-11-30 20:15:00,
2013-11-30 14:25:00,69.8,58.8,30.16,South,185,3.0,7.0,68,0.00,,,0.00,181,Wunderground v.1.15,2013-11-30 20:25:00,
2013-11-30 14:30:00,69.9,58.9,30.14,South,185,4.0,5.0,68,0.00,,,0.00,167,Wunderground v.1.15,2013-11-30 20:30:00,
2013-11-30 14:35:00,70.0,59.0,30.14,SSW,192,5.0,6.0,68,0.00,,,0.00,135,Wunderground v.1.15,2013-11-30 20:35:00,
2013-11-30 14:40:00,70.0,59.0,30.14,SSW,193,6.0,7.0,68,0.00,,,0.00,151,Wunderground v.1.15,2013-11-30 20:40:00,
2013-11-30 14:45:00,70.0,59.0,30.14,SSW,193,6.0,7.0,68,0.00,,,0.00,137,Wunderground v.1.15,2013-11-30 20:45:00,
2013-11-30 14:55:00,69.9,58.9,30.14,South,190,3.0,6.0,68,0.00,,,0.00,144,Wunderground v.1.15,2013-11-30 20:55:00,
2013-11-30 15:00:00,69.9,58.9,30.13,South,190,5.0,5.0,68,0.00,,,0.00,153,Wunderground v.1.15,2013-11-30 21:00:00,
2013-11-30 15:05:00,70.0,59.0,30.13,South,190,5.0,5.0,68,0.00,,,0.00,186,Wunderground v.1.15,2013-11-30 21:05:00,
2013-11-30 15:10:00,70.0,59.0,30.13,South,190,5.0,10.0,68,0.00,,,0.00,174,Wunderground v.1.15,2013-11-30 21:10:00,
2013-11-30 15:20:00,70.2,59.1,30.13,South,188,5.0,5.0,68,0.00,,,0.00,127,Wunderground v.1.15,2013-11-30 21:20:00,
2013-11-30 15:25:00,70.1,58.6,30.13,South,190,5.0,5.0,67,0.00,,,0.00,105,Wunderground v.1.15,2013-11-30 21:25:00,
2013-11-30 15:30:00,69.9,58.4,30.13,South,188,4.0,4.0,67,0.00,,,0.00,93,Wunderground v.1.15,2013-11-30 21:30:00,
2013-11-30 15:35:00,69.8,58.3,30.13,South,188,5.0,5.0,67,0.00,,,0.00,105,Wunderground v.1.15,2013-11-30 21:35:00,
2013-11-30 15:40:00,69.8,58.3,30.13,South,191,6.0,9.0,67,0.00,,,0.00,93,Wunderground v.1.15,2013-11-30 21:40:00,
2013-11-30 15:45:00,69.8,58.3,30.13,South,191,7.0,9.0,67,0.00,,,0.00,98,Wunderground v.1.15,2013-11-30 21:45:00,
2013-11-30 15:50:00,69.8,58.8,30.13,South,191,6.0,6.0,68,0.00,,,0.00,90,Wunderground v.1.15,2013-11-30 21:50:00,
2013-11-30 15:55:00,69.7,58.7,30.13,South,191,6.0,6.0,68,0.00,,,0.00,95,Wunderground v.1.15,2013-11-30 21:55:00,
2013-11-30 16:00:00,69.7,58.7,30.13,South,191,4.0,4.0,68,0.00,,,0.00,93,Wunderground v.1.15,2013-11-30 22:00:00,
2013-11-30 16:05:00,69.8,58.8,30.13,South,191,2.0,4.0,68,0.00,,,0.00,91,Wunderground v.1.15,2013-11-30 22:05:00,
2013-11-30 16:15:00,69.7,58.7,30.12,South,191,5.0,5.0,68,0.00,,,0.00,83,Wunderground v.1.15,2013-11-30 22:15:00,
2013-11-30 16:25:00,69.3,58.3,30.12,South,191,1.0,3.0,68,0.00,,,0.00,81,Wunderground v.1.15,2013-11-30 22:25:00,
2013-11-30 16:35:00,69.0,58.8,30.11,South,191,0.0,0.0,70,0.00,,,0.00,63,Wunderground v.1.15,2013-11-30 22:35:00,
2013-11-30 16:40:00,68.9,59.1,30.11,South,191,0.0,0.0,71,0.00,,,0.00,60,Wunderground v.1.15,2013-11-30 22:40:00,
2013-11-30 16:45:00,68.7,58.9,30.11,South,191,1.0,3.0,71,0.00,,,0.00,54,Wunderground v.1.15,2013-11-30 22:45:00,
2013-11-30 16:50:00,68.5,58.7,30.11,South,191,1.0,1.0,71,0.00,,,0.00,49,Wunderground v.1.15,2013-11-30 22:50:00,
2013-11-30 16:55:00,68.4,58.6,30.11,South,191,1.0,1.0,71,0.00,,,0.00,44,Wunderground v.1.15,2013-11-30 22:55:00,
2013-11-30 17:00:00,68.5,58.7,30.10,South,191,1.0,2.0,71,0.00,,,0.00,37,Wunderground v.1.15,2013-11-30 23:00:00,
2013-11-30 17:10:00,68.5,58.7,30.10,South,191,1.0,1.0,71,0.00,,,0.00,25,Wunderground v.1.15,2013-11-30 23:10:00,
2013-11-30 17:15:00,68.4,58.6,30.10,South,191,0.0,1.0,71,0.00,,,0.00,19,Wunderground v.1.15,2013-11-30 23:15:00,
2013-11-30 17:20:00,68.3,58.9,30.10,South,191,0.0,0.0,72,0.00,,,0.00,14,Wunderground v.1.15,2013-11-30 23:20:00,
2013-11-30 17:25:00,68.1,58.7,30.10,South,191,0.0,0.0,72,0.00,,,0.00,11,Wunderground v.1.15,2013-11-30 23:25:00,
2013-11-30 17:30:00,68.0,58.6,30.10,South,191,0.0,0.0,72,0.00,,,0.00,7,Wunderground v.1.15,2013-11-30 23:30:00,
2013-11-30 17:35:00,67.8,58.4,30.10,South,191,0.0,0.0,72,0.00,,,0.00,0,Wunderground v.1.15,2013-11-30 23:35:00,
2013-11-30 17:40:00,67.7,58.3,30.10,South,191,0.0,0.0,72,0.00,,,0.00,0,Wunderground v.1.15,2013-11-30 23:40:00,
2013-11-30 17:45:00,67.5,58.2,30.11,South,191,0.0,0.0,72,0.00,,,0.00,0,Wunderground v.1.15,2013-11-30 23:45:00,
2013-11-30 17:50:00,67.3,58.0,30.11,South,191,0.0,0.0,72,0.00,,,0.00,0,Wunderground v.1.15,2013-11-30 23:50:00,
2013-11-30 17:55:00,67.1,58.2,30.11,South,191,0.0,0.0,73,0.00,,,0.00,0,Wunderground v.1.15,2013-11-30 23:55:00,
2013-11-30 18:00:00,66.9,58.0,30.12,South,191,0.0,0.0,73,0.00,,,0.00,0,Wunderground v.1.15,2013-12-01 00:00:00,
2013-11-30 18:05:00,66.7,57.8,30.12,South,191,0.0,0.0,73,0.00,,,0.00,0,Wunderground v.1.15,2013-12-01 00:05:00,
2013-11-30 18:10:00,66.5,58.3,30.12,South,191,0.0,0.0,75,0.00,,,0.00,0,Wunderground v.1.15,2013-12-01 00:10:00,
2013-11-30 18:15:00,66.3,58.5,30.13,South,191,0.0,0.0,76,0.00,,,0.00,0,Wunderground v.1.15,2013-12-01 00:15:00,
2013-11-30 18:20:00,66.1,57.9,30.13,SSW,192,0.0,0.0,75,0.00,,,0.00,0,Wunderground v.1.15,2013-12-01 00:20:00,
2013-11-30 18:25:00,65.9,58.1,30.13,SSW,192,0.0,0.0,76,0.00,,,0.00,0,Wunderground v.1.15,2013-12-01 00:25:00,
2013-11-30 18:30:00,65.7,57.9,30.13,South,191,0.0,0.0,76,0.00,,,0.00,0,Wunderground v.1.15,2013-12-01 00:30:00,
2013-11-30 18:35:00,65.5,57.7,30.13,SSW,192,0.0,0.0,76,0.00,,,0.00,0,Wunderground v.1.15,2013-12-01 00:35:00,
2013-11-30 18:40:00,65.3,57.9,30.13,South,191,0.0,0.0,77,0.00,,,0.00,0,Wunderground v.1.15,2013-12-01 00:40:00,
2013-11-30 18:45:00,65.2,57.8,30.13,South,191,0.0,0.0,77,0.00,,,0.00,0,Wunderground v.1.15,2013-12-01 00:45:00,
2013-11-30 18:50:00,65.1,58.1,30.13,South,191,0.0,0.0,78,0.00,,,0.00,0,Wunderground v.1.15,2013-12-01 00:50:00,
2013-11-30 18:56:00,64.9,57.9,30.13,South,191,0.0,0.0,78,0.00,,,0.00,0,Wunderground v.1.15,2013-12-01 00:56:00,
2013-11-30 19:00:00,64.8,57.4,30.13,SSW,192,0.0,0.0,77,0.00,,,0.00,0,Wunderground v.1.15,2013-12-01 01:00:00,
2013-11-30 19:05:00,64.7,57.7,30.13,SSW,192,0.0,0.0,78,0.00,,,0.00,0,Wunderground v.1.15,2013-12-01 01:05:00,
2013-11-30 19:10:00,64.6,57.6,30.13,South,191,0.0,0.0,78,0.00,,,0.00,0,Wunderground v.1.15,2013-12-01 01:10:00,
2013-11-30 19:15:00,64.5,57.5,30.13,South,191,0.0,0.0,78,0.00,,,0.00,0,Wunderground v.1.15,2013-12-01 01:15:00,
2013-11-30 19:20:00,64.4,57.4,30.13,SSW,192,0.0,0.0,78,0.00,,,0.00,0,Wunderground v.1.15,2013-12-01 01:20:00,
2013-11-30 19:25:00,64.2,57.2,30.13,SSW,192,0.0,0.0,78,0.00,,,0.00,0,Wunderground v.1.15,2013-12-01 01:25:00,
2013-11-30 19:30:00,64.1,57.5,30.13,South,191,0.0,0.0,79,0.00,,,0.00,0,Wunderground v.1.15,2013-12-01 01:30:00,
2013-11-30 19:35:00,63.9,57.3,30.13,SSW,192,1.0,4.0,79,0.00,,,0.00,0,Wunderground v.1.15,2013-12-01 01:35:00,
2013-11-30 19:40:00,63.8,57.5,30.13,SSW,192,1.0,1.0,80,0.00,,,0.00,0,Wunderground v.1.15,2013-12-01 01:40:00,
2013-11-30 19:45:00,63.7,57.4,30.14,South,191,1.0,3.0,80,0.00,,,0.00,0,Wunderground v.1.15,2013-12-01 01:45:00,
2013-11-30 19:50:00,63.6,57.3,30.14,South,191,1.0,1.0,80,0.00,,,0.00,0,Wunderground v.1.15,2013-12-01 01:50:00,
2013-11-30 19:55:00,63.6,57.3,30.14,South,191,2.0,3.0,80,0.00,,,0.00,0,Wunderground v.1.15,2013-12-01 01:55:00,
2013-11-30 20:00:00,63.6,57.7,30.14,SSW,192,3.0,6.0,81,0.00,,,0.00,0,Wunderground v.1.15,2013-12-01 02:00:00,
2013-11-30 20:10:00,63.4,57.5,30.14,South,190,4.0,4.0,81,0.00,,,0.00,0,Wunderground v.1.15,2013-12-01 02:10:00,
2013-11-30 20:15:00,63.4,57.5,30.14,South,190,3.0,4.0,81,0.00,,,0.00,0,Wunderground v.1.15,2013-12-01 02:15:00,
2013-11-30 20:20:00,63.3,57.7,30.14,South,187,4.0,5.0,82,0.00,,,0.00,0,Wunderground v.1.15,2013-12-01 02:20:00,
2013-11-30 20:30:00,63.2,57.6,30.14,South,182,5.0,5.0,82,0.00,,,0.00,0,Wunderground v.1.15,2013-12-01 02:30:00,
2013-11-30 20:35:00,63.1,57.9,30.14,South,182,5.0,5.0,83,0.00,,,0.00,0,Wunderground v.1.15,2013-12-01 02:35:00,
2013-11-30 20:40:00,63.1,57.9,30.14,South,180,5.0,5.0,83,0.00,,,0.00,0,Wunderground v.1.15,2013-12-01 02:40:00,
2013-11-30 20:45:00,63.0,57.8,30.15,South,180,5.0,7.0,83,0.00,,,0.00,0,Wunderground v.1.15,2013-12-01 02:45:00,
2013-11-30 20:50:00,63.0,57.8,30.15,South,181,5.0,5.0,83,0.00,,,0.00,0,Wunderground v.1.15,2013-12-01 02:50:00,
2013-11-30 20:55:00,62.9,57.7,30.15,South,180,5.0,5.0,83,0.00,,,0.00,0,Wunderground v.1.15,2013-12-01 02:55:00,
2013-11-30 21:00:00,62.8,57.6,30.14,South,180,5.0,5.0,83,0.00,,,0.00,0,Wunderground v.1.15,2013-12-01 03:00:00,
2013-11-30 21:05:00,62.8,57.6,30.14,South,180,4.0,5.0,83,0.00,,,0.00,0,Wunderground v.1.15,2013-12-01 03:05:00,
2013-11-30 21:10:00,62.7,57.5,30.14,South,180,5.0,5.0,83,0.00,,,0.00,0,Wunderground v.1.15,2013-12-01 03:10:00,
2013-11-30 21:15:00,62.6,57.4,30.14,South,180,5.0,5.0,83,0.00,,,0.00,0,Wunderground v.1.15,2013-12-01 03:15:00,
2013-11-30 21:20:00,62.5,57.3,30.14,South,180,4.0,4.0,83,0.00,,,0.00,0,Wunderground v.1.15,2013-12-01 03:20:00,
2013-11-30 21:25:00,62.4,57.5,30.14,South,180,4.0,4.0,84,0.00,,,0.00,0,Wunderground v.1.15,2013-12-01 03:25:00,
2013-11-30 21:30:00,62.2,57.3,30.14,South,180,4.0,4.0,84,0.00,,,0.00,0,Wunderground v.1.15,2013-12-01 03:30:00,
2013-11-30 21:35:00,62.1,57.2,30.14,South,180,4.0,5.0,84,0.00,,,0.00,0,Wunderground v.1.15,2013-12-01 03:35:00,
2013-11-30 21:40:00,62.0,57.1,30.14,South,180,5.0,5.0,84,0.00,,,0.00,0,Wunderground v.1.15,2013-12-01 03:40:00,
2013-11-30 21:50:00,62.0,57.4,30.13,South,180,4.0,4.0,85,0.00,,,0.00,0,Wunderground v.1.15,2013-12-01 03:50:00,
2013-11-30 21:55:00,61.9,57.3,30.13,South,180,4.0,5.0,85,0.00,,,0.00,0,Wunderground v.1.15,2013-12-01 03:55:00,
2013-11-30 22:00:00,62.0,57.4,30.13,South,175,5.0,5.0,85,0.00,,,0.00,0,Wunderground v.1.15,2013-12-01 04:00:00,
2013-11-30 22:05:00,61.9,57.3,30.13,South,175,4.0,5.0,85,0.00,,,0.00,0,Wunderground v.1.15,2013-12-01 04:05:00,
2013-11-30 22:10:00,61.9,57.3,30.13,South,172,3.0,4.0,85,0.00,,,0.00,0,Wunderground v.1.15,2013-12-01 04:10:00,
2013-11-30 22:15:00,61.8,57.2,30.13,South,171,4.0,5.0,85,0.00,,,0.00,0,Wunderground v.1.15,2013-12-01 04:15:00,
2013-11-30 22:20:00,61.7,57.1,30.13,South,173,4.0,4.0,85,0.00,,,0.00,0,Wunderground v.1.15,2013-12-01 04:20:00,
2013-11-30 22:25:00,61.6,57.0,30.13,South,175,6.0,6.0,85,0.00,,,0.00,0,Wunderground v.1.15,2013-12-01 04:25:00,
2013-11-30 22:30:00,61.5,56.9,30.13,South,175,5.0,6.0,85,0.00,,,0.00,0,Wunderground v.1.15,2013-12-01 04:30:00,
2013-11-30 22:35:00,61.4,56.8,30.13,South,175,5.0,6.0,85,0.00,,,0.00,0,Wunderground v.1.15,2013-12-01 04:35:00,
2013-11-30 22:40:00,61.3,56.8,30.13,South,176,5.0,5.0,85,0.00,,,0.00,0,Wunderground v.1.15,2013-12-01 04:40:00,
2013-11-30 22:50:00,61.1,56.9,30.14,South,175,4.0,7.0,86,0.00,,,0.00,0,Wunderground v.1.15,2013-12-01 04:50:00,
2013-11-30 22:55:00,61.0,56.8,30.14,South,175,5.0,7.0,86,0.00,,,0.00,0,Wunderground v.1.15,2013-12-01 04:55:00,
2013-11-30 23:00:00,61.0,56.8,30.13,South,175,4.0,4.0,86,0.00,,,0.00,0,Wunderground v.1.15,2013-12-01 05:00:00,
2013-11-30 23:05:00,60.9,56.7,30.13,South,175,3.0,4.0,86,0.00,,,0.00,0,Wunderground v.1.15,2013-12-01 05:05:00,
2013-11-30 23:10:00,60.8,56.6,30.13,South,175,3.0,3.0,86,0.00,,,0.00,0,Wunderground v.1.15,2013-12-01 05:10:00,
2013-11-30 23:20:00,60.6,56.7,30.12,South,175,1.0,1.0,87,0.00,,,0.00,0,Wunderground v.1.15,2013-12-01 05:20:00,
2013-11-30 23:25:00,60.5,56.6,30.12,South,175,0.0,1.0,87,0.00,,,0.00,0,Wunderground v.1.15,2013-12-01 05:25:00,
2013-11-30 23:30:00,60.4,56.5,30.12,South,175,0.0,0.0,87,0.00,,,0.00,0,Wunderground v.1.15,2013-12-01 05:30:00,
2013-11-30 23:35:00,60.3,56.4,30.12,South,175,0.0,0.0,87,0.00,,,0.00,0,Wunderground v.1.15,2013-12-01 05:35:00,
2013-11-30 23:40:00,60.2,56.3,30.12,South,175,0.0,0.0,87,0.00,,,0.00,0,Wunderground v.1.15,2013-12-01 05:40:00,
2013-11-30 23:45:00,60.1,56.2,30.11,South,175,0.0,0.0,87,0.00,,,0.00,0,Wunderground v.1.15,2013-12-01 05:45:00,
2013-11-30 23:50:00,60.0,56.4,30.11,South,175,0.0,0.0,88,0.00,,,0.00,0,Wunderground v.1.15,2013-12-01 05:50:00,
2013-11-30 23:55:00,59.9,56.3,30.11,South,175,0.0,0.0,88,0.00,,,0.00,0,Wunderground v.1.15,2013-12-01 05:55:00,